パンスターズ彗星

P/2023 B1 ( PanSTARRS )

English version
Home page
Updated on May 13, 2024

---------------------------------------------------------------------

・ プロフィール

発見日 2023年1月21日
発見光度 17.7等
発見者 Pan-STARRS 2 telescope (Haleakala)

・ 写真集

・ 軌道要素

Epoch 2024 Mar. 31.0 TT = JDT 2460400.5
T 2023 May 1.16708 TT                                   Rudenko
q   6.1402584            (2000.0)            P               Q
n   0.05256964     Peri.   81.54224     -0.90906889     -0.33563339
a   7.0574216      Node    78.56377     +0.20730257     -0.87832845
e   0.1299573      Incl.   14.58813     +0.36141306     -0.34042525
P  18.7
>From 510 observations 2023 Jan. 13-2024 Mar. 18, mean residual 0".5.

・ 光度変化

        m1 =    8.0 + 5 logΔ +  10.0 log r           [    ,-110]  (              〜2023年 1月 8日)
        m1 = -540   + 5 logΔ + 700   log r(t + 300)  [-110, 112]  (2023年 1月 8日〜2023年 8月18日)
        m1 =    8.0 + 5 logΔ +  10.0 log r           [ 112,    ]  (2023年 8月18日〜              )

---------------------------------------------------------------------

軌道要素はM.P.E.C. 2024-F34に掲載されたものです。
光度グラフはComet for Windowsで作成したものです。

---------------------------------------------------------------------

Copyright(C) Seiichi Yoshida (comet@aerith.net). All rights reserved.